Clinton, OK

4:33 PM CDT on October 23, 2017 (GMT -0500)
Clinton Municipal

Weather History for KCLK - January, 2013

Change the Weather History Date:

Thursday, January 10, 2013

  Actual Average (KCSM) Record (KCSM)
Temperature  
Mean Temperature 44 °F -  
Max Temperature 48 °F 46 °F 66 °F (2000)
Min Temperature 39 °F 27 °F 14 °F (2011)
Degree Days  
Heating Degree Days 22    
Moisture  
Dew Point 43 °F    
Average Humidity 93    
Maximum Humidity 100    
Minimum Humidity 87    
Precipitation  
Precipitation 0.36 in - - ()
Sea Level Pressure  
Sea Level Pressure 29.88 in    
Wind  
Wind Speed 8 mph (NE)    
Max Wind Speed 13 mph    
Max Gust Speed 17 mph    
Visibility 5 miles    
Events Fog , Rain    
Averages and records for this station are not official NWS values.
T = Trace of Precipitation, MM = Missing Value Source: NWS Daily Summary

Daily Weather History Graph

Daily Weather History Graph

Search for Another Location

Airport or City:

Trip Planner

Search our weather history database for the weather conditions in past years. The results will help you decide how hot, cold, wet, or windy it might be!

Date:

Astronomy

Jan. 10, 2013 Rise Set
Actual Time 7:45 AM CST 5:41 PM CST
Civil Twilight 7:17 AM CST 6:09 PM CST
Nautical Twilight 6:45 AM CST 6:41 PM CST
Astronomical Twilight 6:15 AM CST 7:11 PM CST
Moon 6:26 AM CST (1/10) 4:50 PM CST (1/10)
Length of Visible Light 10h 52m
Length of Day
9h 56m
Waning Crescent, 2% of the Moon is Illuminated
Jan 10
Waning Crescent
Jan 11
New
Jan 18
First Quarter
Jan 26
Full
Feb 3
Last Quarter

Hourly Weather History & Observations

Time (CST) Temp. Windchill Dew Point Humidity Pressure Visibility Wind Dir Wind Speed Gust Speed Precip Events Conditions
12:15 AM 42.8 °F 36.2 °F 41.0 °F 93% 30.09 in 10.0 mi NE 12.7 mph 17.3 mph N/A   Overcast
12:35 AM 42.8 °F 37.0 °F 41.0 °F 93% 30.09 in 10.0 mi NE 10.4 mph - N/A   Overcast
12:55 AM 42.8 °F 36.6 °F 41.0 °F 93% 30.07 in 7.0 mi NE 11.5 mph - 0.04 in Rain Rain
2:35 AM 42.8 °F 36.6 °F 41.0 °F 93% 30.03 in 5.0 mi NE 11.5 mph - 0.05 in Rain Rain
2:55 AM 42.8 °F 36.6 °F 41.0 °F 93% 30.01 in 4.0 mi NE 11.5 mph - 0.18 in Rain Rain
3:35 AM 42.8 °F 36.6 °F 41.0 °F 93% 29.98 in 7.0 mi NE 11.5 mph - 0.02 in Rain Light Rain
3:55 AM 42.8 °F 37.5 °F 41.0 °F 93% 29.98 in 5.0 mi NNE 9.2 mph - 0.03 in Rain Light Rain
4:15 AM 42.8 °F 38.0 °F 41.0 °F 93% 29.97 in 7.0 mi NE 8.1 mph - 0.04 in Rain Rain
4:35 AM 42.8 °F 39.3 °F 41.0 °F 93% 29.97 in 7.0 mi NE 5.8 mph - 0.08 in Rain Light Rain
4:55 AM 42.8 °F 39.3 °F 41.0 °F 93% 29.97 in 7.0 mi ENE 5.8 mph - 0.08 in   Overcast
5:15 AM 42.8 °F 39.3 °F 41.0 °F 93% 29.97 in 3.0 mi ENE 5.8 mph - N/A Rain Light Rain
5:35 AM 42.8 °F 40.1 °F 41.0 °F 93% 29.96 in 4.0 mi NE 4.6 mph - N/A Rain Light Rain
5:55 AM 42.8 °F 39.3 °F 41.0 °F 93% 29.96 in 4.0 mi NE 5.8 mph - N/A   Light Drizzle
6:15 AM 42.8 °F 38.6 °F 41.0 °F 93% 29.94 in 7.0 mi NNE 6.9 mph - N/A   Overcast
6:35 AM 42.8 °F 38.0 °F 41.0 °F 93% 29.94 in 7.0 mi NNE 8.1 mph - N/A   Overcast
6:55 AM 42.8 °F 38.6 °F 41.0 °F 93% 29.94 in 7.0 mi NNE 6.9 mph - N/A   Overcast
7:15 AM 42.8 °F 38.6 °F 41.0 °F 93% 29.93 in 5.0 mi North 6.9 mph - N/A   Overcast
7:35 AM 42.8 °F 38.0 °F 41.0 °F 93% 29.94 in 7.0 mi NNE 8.1 mph - N/A   Overcast
8:15 AM 42.8 °F 37.5 °F 41.0 °F 93% 29.92 in 4.0 mi NNE 9.2 mph - N/A   Overcast
8:35 AM 42.8 °F 37.5 °F 41.0 °F 93% 29.92 in 4.0 mi NNE 9.2 mph - N/A   Overcast
8:55 AM 42.8 °F 37.5 °F 41.0 °F 93% 29.91 in 2.5 mi NNE 9.2 mph - N/A   Overcast
9:15 AM 44.6 °F 39.7 °F 42.8 °F 93% 29.91 in 2.0 mi NNE 9.2 mph - N/A   Overcast
9:35 AM 44.6 °F 40.2 °F 42.8 °F 93% 29.91 in 2.0 mi NE 8.1 mph - N/A   Overcast
9:55 AM 44.6 °F 40.2 °F 42.8 °F 93% 29.91 in 1.5 mi NNE 8.1 mph - N/A   Overcast
10:15 AM 44.6 °F 39.7 °F 42.8 °F 93% 29.90 in 2.0 mi NE 9.2 mph - N/A   Overcast
10:55 AM 44.6 °F 40.2 °F 44.6 °F 100% 29.90 in 2.0 mi ENE 8.1 mph - 0.01 in   Overcast
11:15 AM 46.4 °F 41.9 °F 44.6 °F 93% 29.88 in 3.0 mi ENE 9.2 mph - N/A   Overcast
11:35 AM 46.4 °F 43.5 °F 44.6 °F 93% 29.88 in 7.0 mi NE 5.8 mph - N/A   Overcast
11:55 AM 46.4 °F 45.2 °F 44.6 °F 93% 29.88 in 5.0 mi ENE 3.5 mph - N/A   Overcast
12:15 PM 46.4 °F - 44.6 °F 93% 29.87 in 1.5 mi Calm Calm - N/A Rain Rain
12:35 PM 46.4 °F - 44.6 °F 93% 29.85 in 2.0 mi Calm Calm - N/A   Light Drizzle
12:55 PM 46.4 °F 45.2 °F 44.6 °F 93% 29.84 in 5.0 mi NNW 3.5 mph - N/A   Overcast
1:15 PM 46.4 °F 45.2 °F 44.6 °F 93% 29.83 in 10.0 mi North 3.5 mph - N/A   Overcast
1:35 PM 46.4 °F 45.2 °F 46.4 °F 100% 29.83 in 10.0 mi NW 3.5 mph - N/A   Overcast
1:55 PM 46.4 °F 44.3 °F 46.4 °F 100% 29.83 in 1.5 mi WNW 4.6 mph - 0.01 in   Heavy Drizzle
2:15 PM 48.2 °F - 46.4 °F 93% 29.81 in 2.0 mi NNW 3.5 mph - N/A   Light Drizzle
3:15 PM 48.2 °F - 46.4 °F 93% 29.81 in 10.0 mi WNW 5.8 mph - N/A   Overcast
3:35 PM 48.2 °F - 46.4 °F 93% 29.82 in 7.0 mi West 4.6 mph - N/A   Overcast
3:55 PM 48.2 °F - 46.4 °F 93% 29.83 in 10.0 mi West 9.2 mph - N/A   Overcast
4:15 PM 46.4 °F 41.1 °F 44.6 °F 93% 29.84 in 1.5 mi West 11.5 mph - N/A Rain Rain
4:35 PM 46.4 °F 42.4 °F 44.6 °F 93% 29.85 in 1.2 mi West 8.1 mph - 0.01 in   Drizzle
4:55 PM 46.4 °F 44.3 °F 44.6 °F 93% 29.84 in 2.5 mi WNW 4.6 mph - 0.01 in   Overcast
5:15 PM 46.4 °F 45.2 °F 44.6 °F 93% 29.84 in 10.0 mi West 3.5 mph - N/A   Overcast
5:35 PM 46.4 °F 45.2 °F 44.6 °F 93% 29.84 in 10.0 mi West 3.5 mph - N/A   Scattered Clouds
5:55 PM 44.6 °F 43.1 °F 42.8 °F 93% 29.84 in 7.0 mi SW 3.5 mph - N/A   Clear
6:15 PM 44.6 °F - 42.8 °F 93% 29.82 in 7.0 mi Calm Calm - N/A   Clear
6:35 PM 44.6 °F 40.7 °F 42.8 °F 93% 29.80 in 1.2 mi East 6.9 mph - N/A   Mist
6:55 PM 42.8 °F 40.1 °F 41.0 °F 93% 29.80 in 0.5 mi East 4.6 mph - N/A Fog Fog
7:15 PM 41.0 °F 39.0 °F 37.4 °F 87% 29.80 in 0.5 mi ESE 3.5 mph - N/A Fog Fog
7:35 PM 39.2 °F 37.0 °F 37.4 °F 93% 29.82 in 0.5 mi South 3.5 mph - N/A Fog Fog
7:55 PM 41.0 °F 35.8 °F 37.4 °F 87% 29.83 in 0.2 mi South 8.1 mph - N/A Fog Fog
8:15 PM 42.8 °F 37.5 °F 41.0 °F 93% 29.82 in 0.5 mi South 9.2 mph - N/A Fog Fog
8:35 PM 44.6 °F 39.7 °F 42.8 °F 93% 29.82 in 5.0 mi South 9.2 mph - N/A   Overcast
8:55 PM 44.6 °F 40.2 °F 42.8 °F 93% 29.81 in 7.0 mi South 8.1 mph - N/A   Overcast
9:15 PM 44.6 °F 40.2 °F 42.8 °F 93% 29.82 in 7.0 mi South 8.1 mph - N/A   Mostly Cloudy
9:35 PM 44.6 °F 40.2 °F 42.8 °F 93% 29.82 in 7.0 mi South 8.1 mph - N/A   Overcast
9:55 PM 44.6 °F 39.2 °F 42.8 °F 93% 29.82 in 7.0 mi South 10.4 mph - N/A   Mostly Cloudy
10:15 PM 44.6 °F 40.2 °F 42.8 °F 93% 29.83 in 7.0 mi South 8.1 mph - N/A   Overcast
10:55 PM 42.8 °F 38.6 °F 42.8 °F 100% 29.82 in 7.0 mi SSE 6.9 mph - N/A   Mostly Cloudy
11:15 PM 42.8 °F 38.6 °F 41.0 °F 93% 29.80 in 7.0 mi SE 6.9 mph - N/A   Scattered Clouds
11:35 PM 42.8 °F 37.0 °F 41.0 °F 93% 29.80 in 7.0 mi South 10.4 mph - N/A   Scattered Clouds
11:55 PM 42.8 °F 36.2 °F 41.0 °F 93% 29.79 in 7.0 mi SSE 12.7 mph - N/A   Clear